EW9081 Weather Reports


Display with metric or nautical units.
time (UTC)temp
F
wind
direction
speed
MPH
gust
MPH
rain 1hr
in
rain 24hr
in
rain mn
in
humidity
%
barometer
mb
20260504215304 69 267 4.0 10.0 0.00 0.00 0.00 67 1012.0
20260504214805 69 259 5.0 11.0 0.00 0.00 0.00 66 1012.0
20260504214305 69 176 6.0 12.0 0.00 0.00 0.00 64 1012.1
20260504213809 69 286 4.0 12.0 0.00 0.00 0.00 64 1012.2
20260504213805 69 222 5.0 12.0 0.00 0.00 0.00 63 1012.2
20260504212804 69 216 3.0 10.0 0.00 0.00 0.00 68 1012.3
20260504212309 69 287 5.0 13.0 0.00 0.00 0.00 66 1012.4
20260504212304 69 223 4.0 9.0 0.00 0.00 0.00 67 1012.2
20260504211803 69 244 4.0 9.0 0.00 0.00 0.00 69 1012.3
20260504211302 69 234 5.0 13.0 0.00 0.00 0.00 64 1012.3
20260504210302 70 285 4.0 10.0 0.00 0.00 0.00 66 1012.4
20260504205806 70 262 3.0 8.0 0.00 0.00 0.00 66 1012.5
20260504205802 69 273 4.0 10.0 0.00 0.00 0.00 68 1012.5
20260504204808 70 282 3.0 10.0 0.00 0.00 0.00 65 1012.7
20260504204802 70 265 3.0 8.0 0.00 0.00 0.00 65 1012.6
20260504203801 69 215 3.0 10.0 0.00 0.00 0.00 67 1012.7
20260504203307 69 229 3.0 10.0 0.00 0.00 0.00 62 1012.7
20260504203303 69 201 4.0 10.0 0.00 0.00 0.00 65 1012.7
20260504202915 69 293 3.0 9.0 0.00 0.00 0.00 65 1012.7
20260504201802 69 235 3.0 9.0 0.00 0.00 0.00 68 1012.7
20260504201303 69 257 3.0 9.0 0.00 0.00 0.00 66 1012.8
20260504200803 69 212 3.0 9.0 0.00 0.00 0.00 62 1012.7
20260504200259 68 254 2.0 6.0 0.00 0.00 0.00 68 1012.8
20260504195759 68 302 2.0 5.0 0.00 0.00 0.00 64 1012.8
20260504195305 68 232 2.0 5.0 0.00 0.00 0.00 63 1012.8
20260504195300 68 236 2.0 5.0 0.00 0.00 0.00 63 1012.8
20260504194300 68 253 2.0 5.0 0.00 0.00 0.00 72 1012.9
20260504193800 68 202 2.0 7.0 0.00 0.00 0.00 64 1012.9
20260504193259 68 304 1.0 7.0 0.00 0.00 0.00 69 1012.9
20260504192800 67 311 2.0 7.0 0.00 0.00 0.00 63 1012.9
20260504192300 67 288 2.0 7.0 0.00 0.00 0.00 67 1012.9
20260504191759 67 260 1.0 7.0 0.00 0.00 0.00 66 1012.9
20260504191259 67 218 2.0 7.0 0.00 0.00 0.00 66 1012.9
20260504190759 67 252 2.0 6.0 0.00 0.00 0.00 67 1013.1
20260504190304 66 187 2.0 5.0 0.00 0.00 0.00 69 1013.2
20260504190300 66 218 2.0 6.0 0.00 0.00 0.00 67 1013.1
20260504185300 66 158 2.0 5.0 0.00 0.00 0.00 70 1013.2
20260504184800 66 281 2.0 5.0 0.00 0.00 0.00 70 1013.3
20260504184301 66 215 2.0 5.0 0.00 0.00 0.00 70 1013.3
20260504183800 66 158 2.0 6.0 0.00 0.00 0.00 72 1013.3
20260504183300 65 111 3.0 7.0 0.00 0.00 0.00 73 1013.4
20260504182757 65 177 2.0 7.0 0.00 0.00 0.00 72 1013.3
20260504182257 64 166 2.0 5.0 0.00 0.00 0.00 73 1013.3
20260504181758 64 169 2.0 6.0 0.00 0.00 0.00 72 1013.3
20260504181257 63 198 2.0 6.0 0.00 0.00 0.00 72 1013.3
20260504180758 63 163 2.0 6.0 0.00 0.00 0.00 72 1013.2
20260504180303 62 179 3.0 8.0 0.00 0.00 0.00 73 1013.3
20260504180259 63 232 2.0 4.0 0.00 0.00 0.00 73 1013.3
20260504175259 62 225 3.0 8.0 0.00 0.00 0.00 75 1013.2
20260504174757 62 180 3.0 6.0 0.00 0.00 0.00 75 1013.3
20260504174258 62 211 3.0 7.0 0.00 0.00 0.00 77 1013.4
20260504173803 61 196 2.0 7.0 0.00 0.00 0.00 74 1013.4
20260504173759 61 220 3.0 7.0 0.00 0.00 0.00 74 1013.3
20260504172802 60 209 2.0 6.0 0.00 0.00 0.00 76 1013.5
20260504172758 61 230 2.0 5.0 0.00 0.00 0.00 73 1013.4
20260504171803 60 215 2.0 6.0 0.00 0.00 0.00 76 1013.5
20260504171757 60 175 2.0 6.0 0.00 0.00 0.00 76 1013.5
20260504171411 60 157 3.0 6.0 0.00 0.00 0.00 77 1013.5
20260504170257 59 190 3.0 6.0 0.00 0.00 0.00 77 1013.5
20260504160251 57 248 4.0 8.0 0.00 0.00 0.00 82 1013.4
20260504150745 55 234 4.0 12.0 0.00 0.00 0.00 84 1013.1
20260504150245 55 248 4.0 12.0 0.00 0.00 0.00 84 1013.1
20260504141246 54 246 4.0 10.0 0.00 0.00 0.00 86 1012.5
20260504141241 54 232 3.0 10.0 0.00 0.00 0.00 86 1012.6
20260504140242 54 319 3.0 9.0 0.00 0.00 0.00 86 1012.5
20260504130739 53 207 3.0 14.0 0.00 0.00 0.00 87 1011.8
20260504130239 53 315 3.0 14.0 0.00 0.00 0.00 87 1011.7
20260504120242 53 217 3.0 14.0 0.00 0.00 0.00 88 1011.2
20260504120238 53 230 4.0 14.0 0.00 0.00 0.00 88 1011.3
20260504110236 53 224 3.0 10.0 0.00 0.00 0.00 88 1010.8
20260504100238 53 233 3.0 12.0 0.00 0.00 0.00 88 1010.3
20260504100233 53 232 4.0 13.0 0.00 0.00 0.00 89 1010.4
20260504081732 53 279 4.0 13.0 0.00 0.00 0.00 87 1010.0
20260504081234 54 275 4.0 12.0 0.00 0.00 0.00 87 1009.9
20260504080739 54 254 4.0 12.0 0.00 0.00 0.00 86 1009.9
20260504080733 54 271 4.0 12.0 0.00 0.00 0.00 86 1009.9
20260504080233 54 239 4.0 12.0 0.00 0.00 0.00 86 1010.0
20260504060230 58 250 4.0 10.0 0.00 0.00 0.00 77 1009.2
20260504050727 62 226 3.0 12.0 0.00 0.00 0.00 68 1008.7
20260504050225 63 279 3.0 12.0 0.00 0.00 0.00 67 1008.6
20260504045729 64 231 3.0 9.0 0.00 0.00 0.00 64 1008.4
20260504045725 63 246 3.0 12.0 0.00 0.00 0.00 66 1008.4
20260504044726 65 251 3.0 8.0 0.00 0.00 0.00 63 1008.3
20260504044227 66 238 3.0 8.0 0.00 0.00 0.00 61 1008.2
20260504043725 67 309 3.0 8.0 0.00 0.00 0.00 59 1008.1
20260504043223 68 234 2.0 7.0 0.00 0.00 0.00 56 1008.0
20260504042723 69 240 1.0 4.0 0.00 0.00 0.00 55 1007.9
20260504042223 70 327 2.0 8.0 0.00 0.00 0.00 53 1007.8
20260504041722 71 272 2.0 8.0 0.00 0.00 0.00 51 1007.7
20260504041223 71 226 2.0 9.0 0.00 0.00 0.00 50 1007.6
20260504040723 72 288 2.0 9.0 0.00 0.00 0.00 49 1007.5
20260504040222 73 259 2.0 7.0 0.00 0.00 0.00 48 1007.4
20260504035723 73 266 2.0 5.0 0.00 0.00 0.00 47 1007.4
20260504035222 74 281 2.0 5.0 0.00 0.00 0.00 46 1007.4
20260504034728 74 239 2.0 9.0 0.00 0.00 0.00 44 1007.3
20260504034723 74 262 2.0 9.0 0.00 0.00 0.00 44 1007.3
20260504033722 75 214 2.0 9.0 0.00 0.00 0.00 43 1007.3
20260504033222 75 267 1.0 6.0 0.00 0.00 0.00 43 1007.3
20260504032724 75 258 1.0 3.0 0.00 0.00 0.00 42 1007.2
20260504032222 75 272 0.0 2.0 0.00 0.00 0.00 42 1007.0
20260504031722 76 240 1.0 6.0 0.00 0.00 0.00 41 1007.1
20260504031229 78 281 1.0 5.0 0.00 0.00 0.00 39 1007.0
20260504031223 76 265 1.0 6.0 0.00 0.00 0.00 40 1007.0
20260504030722 77 254 1.0 6.0 0.00 0.00 0.00 40 1007.0
20260504030222 77 257 1.0 6.0 0.00 0.00 0.00 40 1007.0
20260504025722 77 254 1.0 4.0 0.00 0.00 0.00 39 1006.9
20260504024722 78 251 1.0 5.0 0.00 0.00 0.00 39 1007.0
20260504024222 79 273 1.0 5.0 0.00 0.00 0.00 37 1006.9
20260504023724 80 255 1.0 5.0 0.00 0.00 0.00 38 1006.9
20260504023224 80 246 1.0 5.0 0.00 0.00 0.00 38 1006.9
20260504022724 81 251 1.0 5.0 0.00 0.00 0.00 39 1006.9
20260504022224 81 234 1.0 5.0 0.00 0.00 0.00 39 1006.9
20260504021727 82 246 1.0 4.0 0.00 0.00 0.00 39 1006.9
20260504021723 81 230 1.0 4.0 0.00 0.00 0.00 40 1006.8
20260504020723 83 261 1.0 4.0 0.00 0.00 0.00 39 1006.9
20260504020221 83 270 1.0 5.0 0.00 0.00 0.00 39 1006.9
20260504015833 85 240 1.0 4.0 0.00 0.00 0.00 38 1006.9
20260504015724 85 250 1.0 4.0 0.00 0.00 0.00 38 1006.9
20260504015718 84 238 1.0 5.0 0.00 0.00 0.00 37 1006.9
20260504014219 85 257 2.0 7.0 0.00 0.00 0.00 41 1006.9
20260504013719 85 277 3.0 7.0 0.00 0.00 0.00 39 1006.9
20260504013222 85 205 3.0 7.0 0.00 0.00 0.00 39 1006.9
20260504013218 85 232 3.0 7.0 0.00 0.00 0.00 37 1006.8
20260504012217 86 228 2.0 7.0 0.00 0.00 0.00 38 1006.9
20260504011714 87 251 1.0 4.0 0.00 0.00 0.00 37 1006.9
20260504011214 87 250 1.0 4.0 0.00 0.00 0.00 36 1006.9
20260504010711 88 255 1.0 4.0 0.00 0.00 0.00 36 1007.0
20260504010212 89 255 1.0 4.0 0.00 0.00 0.00 38 1007.0
20260504005710 89 272 0.0 4.0 0.00 0.00 0.00 34 1007.1
20260504005211 90 238 0.0 2.0 0.00 0.00 0.00 37 1007.1
20260504004710 89 178 0.0 2.0 0.00 0.00 0.00 39 1007.1
20260504004211 89 178 1.0 3.0 0.00 0.00 0.00 34 1007.1
20260504003711 88 178 1.0 3.0 0.00 0.00 0.00 27 1007.1
20260504003210 88 176 1.0 5.0 0.00 0.00 0.00 32 1007.1
20260504002708 89 178 1.0 5.0 0.00 0.00 0.00 28 1007.1
20260504002206 89 167 0.0 3.0 0.00 0.00 0.00 32 1007.2
20260504001708 89 167 1.0 5.0 0.00 0.00 0.00 37 1007.1
20260504001202 89 166 1.0 5.0 0.00 0.00 0.00 37 1007.2
20260504000704 89 175 0.0 2.0 0.00 0.00 0.00 29 1007.1
20260504000204 89 182 1.0 4.0 0.00 0.00 0.00 34 1007.1
20260503235702 89 184 1.0 4.0 0.00 0.00 0.00 36 1007.1
20260503235202 89 13 1.0 3.0 0.00 0.00 0.00 34 1007.2
20260503234706 88 355 1.0 2.0 0.00 0.00 0.00 40 1007.2
20260503234702 89 180 1.0 2.0 0.00 0.00 0.00 36 1007.2
20260503233702 88 346 1.0 3.0 0.00 0.00 0.00 36 1007.3
20260503233203 88 329 1.0 3.0 0.00 0.00 0.00 34 1007.3
20260503232701 89 44 0.0 3.0 0.00 0.00 0.00 30 1007.4
20260503232208 88 21 1.0 3.0 0.00 0.00 0.00 32 1007.7
20260503232200 88 331 1.0 2.0 0.00 0.00 0.00 31 1007.5
20260503231700 88 323 1.0 3.0 0.00 0.00 0.00 40 1007.5
20260503231200 88 318 1.0 3.0 0.00 0.00 0.00 33 1007.5
20260503230819 88 22 1.0 3.0 0.00 0.00 0.00 41 1007.8
20260503230701 88 26 1.0 3.0 0.00 0.00 0.00 33 1007.6
20260503230426 88 313 1.0 2.0 0.00 0.00 0.00 33 1007.9
20260503225313 88 334 1.0 3.0 0.00 0.00 0.00 35 1007.9
20260503224813 88 12 1.0 3.0 0.00 0.00 0.00 39 1008.1
20260503223658 88 9 1.0 3.0 0.00 0.00 0.00 38 1008.1
20260503223159 87 162 1.0 4.0 0.00 0.00 0.00 35 1008.1
20260503222658 87 123 1.0 4.0 0.00 0.00 0.00 34 1008.2
20260503222157 87 69 1.0 3.0 0.00 0.00 0.00 31 1008.3
20260503221658 87 355 1.0 3.0 0.00 0.00 0.00 36 1008.4
20260503221159 87 178 1.0 3.0 0.00 0.00 0.00 35 1008.5
20260503220703 86 277 1.0 2.0 0.00 0.00 0.00 33 1008.6
20260503220658 86 0 1.0 2.0 0.00 0.00 0.00 38 1008.5